Wind_Speed
43 42 41 39 38 39 37 35 36 36 37 37 39 41 42 45 46 50 54 54 52 53 56 54 57 61 60 68 67 64 73 67 68 72 74 83 90 90 87 86 89 92 86 77 73 71 62 62 65 63 57 61 56 54
35 34 33 33 31 28 28 28 28 27 29 31 34 37 38 40 43 44 44 45 50 54 51 55 56 59 65 66 67 69 57 61 63 67 74 79 88 85 80 77 81 81 74 69 72 69 65 65 68 66 65 60 58 57
30 29 27 24 20 19 19 19 19 21 23 25 28 32 35 38 39 39 40 43 47 50 55 56 58 59 64 64 60 55 50 53 57 58 67 75 82 81 77 75 76 75 74 69 70 67 63 64 64 67 67 61 61 60
25 22 17 13 12 11 12 12 14 17 19 22 25 27 31 34 37 39 41 43 46 51 55 57 58 60 54 55 52 50 51 53 56 70 73 71 72 73 73 74 75 73 69 66 66 68 67 64 60 73 68 63 61 60
17 11 8 7 4 3 5 7 11 14 18 23 26 29 34 37 39 41 43 46 48 49 52 51 50 48 51 50 50 50 50 55 57 51 56 59 66 73 73 73 67 67 65 63 56 65 71 68 67 67 64 62 64 63
7 4 3 2 2 2 6 9 12 15 18 22 27 30 31 32 33 34 36 39 40 41 44 44 46 48 46 47 47 45 50 53 56 71 70 64 72 71 68 64 66 63 61 61 58 65 66 60 66 67 64 65 67 63
1 3 4 5 6 7 9 13 15 18 19 20 23 26 28 30 33 35 36 38 41 43 44 45 46 46 45 44 43 44 48 53 60 54 54 65 71 71 69 67 67 68 65 62 60 62 62 65 66 67 67 67 66 68
4 6 9 10 12 14 16 18 20 21 22 22 24 27 29 31 33 33 35 36 36 35 36 38 38 39 39 42 44 44 48 53 55 56 61 66 71 69 68 71 74 70 62 59 56 56 61 65 67 69 68 66 67 68
6 8 11 13 15 16 18 21 24 26 27 27 27 29 29 29 31 32 33 34 35 35 36 37 37 37 38 40 40 42 47 52 61 66 59 68 73 71 70 71 68 66 65 62 59 60 63 64 65 68 70 69 69 69
10 12 15 18 19 20 21 23 25 26 27 27 26 28 29 29 29 29 29 29 29 30 31 33 31 31 33 37 40 44 45 53 58 52 55 65 66 67 67 68 65 64 62 59 61 64 66 67 69 71 72 70 70 72
16 16 18 20 22 23 24 25 25 25 26 26 27 27 26 26 25 23 24 25 25 27 26 27 30 32 35 37 40 44 44 48 49 51 56 61 63 64 64 62 62 62 61 62 67 67 69 68 69 69 70 71 72 73
19 22 24 24 25 26 26 25 24 23 21 21 21 21 21 21 21 20 20 22 24 26 26 29 31 31 32 34 37 42 45 46 50 52 55 57 59 63 64 64 64 63 63 65 69 71 70 69 70 71 72 73 74 76
22 23 23 24 26 24 24 24 23 22 20 19 19 18 16 16 18 20 21 20 20 22 25 27 28 30 33 36 39 40 43 45 48 51 53 56 60 63 64 66 65 64 65 67 72 74 75 75 76 76 78 80 80 82
27 26 27 25 25 25 24 24 23 22 20 19 19 19 18 19 18 19 22 22 21 19 22 24 24 26 29 30 39 41 38 38 43 46 50 57 62 64 65 66 66 66 65 69 73 77 79 80 80 81 81 83 84 85
30 28 27 26 25 24 23 24 23 23 22 21 21 20 19 19 20 20 21 21 21 21 22 23 27 29 29 30 32 33 26 29 43 51 54 59 61 64 66 66 69 69 68 69 71 72 75 78 80 82 85 86 87 87
33 31 29 27 25 24 23 24 24 24 23 21 22 21 20 19 19 19 22 20 18 21 23 21 21 25 28 32 33 35 37 38 42 48 55 60 64 66 67 68 69 70 71 72 74 77 79 81 83 84 85 87 89 91
36 35 31 29 27 27 26 25 22 22 25 24 23 23 22 22 21 20 20 20 21 20 19 21 25 26 27 28 30 31 32 38 44 50 55 61 64 65 67 69 72 74 76 77 78 79 81 83 85 88 89 91 93 94
33 34 32 31 28 25 25 24 23 25 28 28 28 26 25 23 21 20 21 21 21 21 21 20 21 22 24 27 28 29 33 41 48 53 57 61 63 66 69 72 74 77 78 80 81 83 83 84 85 87 89 90 91 93
34 36 34 35 36 31 29 29 30 30 29 27 26 27 27 24 21 20 20 19 18 17 17 19 22 24 25 26 28 31 35 41 47 53 58 62 66 69 71 74 77 80 82 84 86 87 88 90 92 93 94 96 97 98
32 34 32 29 28 31 31 28 28 28 27 27 27 22 18 18 16 15 16 16 16 14 14 15 16 19 21 25 29 33 37 41 47 53 59 64 68 71 75 77 80 83 85 87 89 90 92 93 94 96 96 96 97 100
21 22 22 23 21 19 21 22 23 21 21 18 16 16 15 12 9 6 4 4 5 6 10 14 18 22 25 29 33 36 40 44 48 53 59 64 69 74 78 80 83 85 87 89 91 91 92 92 92 92 93 94 94 94
13 16 17 17 14 11 11 12 12 10 9 10 8 6 5 5 5 5 7 8 12 13 14 17 20 23 27 30 34 38 42 47 52 56 59 63 66 70 73 76 80 82 84 85 84 84 86 87 85 84 85 87 89 91
12 11 10 7 5 5 5 2 4 3 2 3 5 8 9 11 13 15 16 17 19 22 26 29 32 35 37 41 44 47 50 53 56 59 61 65 69 72 73 74 75 76 78 79 80 81 82 83 86 88 89 90 92 93
11 10 9 7 5 4 4 5 6 6 8 9 11 14 16 18 20 22 25 28 30 33 36 39 42 45 49 53 56 59 62 66 68 70 71 73 74 74 74 75 76 78 80 82 84 84 84 85 85 87 88 89 90 90
8 7 5 5 6 8 10 13 15 17 19 21 23 25 28 30 32 34 36 39 42 45 48 51 55 58 61 64 67 70 68 63 60 59 61 63 65 67 70 73 75 76 77 78 79 80 81 81 81 81 81 81 81 80
11 13 13 14 16 18 21 22 23 25 27 28 30 31 32 33 35 39 42 46 49 52 54 56 60 62 64 63 59 58 58 58 59 60 61 62 64 64 65 66 67 66 66 67 68 70 70 70 70 70 70 70 69 69
18 20 21 23 25 28 29 30 32 33 35 36 38 40 41 44 46 49 51 54 56 57 58 61 61 60 59 57 54 53 53 53 53 54 55 55 56 57 58 58 59 59 60 60 61 62 62 62 62 62 63 62 63 63
24 26 28 30 33 35 36 38 39 41 42 42 43 46 48 49 49 51 53 55 56 58 57 54 52 50 48 47 46 46 46 46 46 46 47 48 48 49 50 51 52 53 54 55 56 57 57 58 58 59 60 60 60 60
33 34 35 36 38 40 42 44 45 46 48 48 50 51 51 48 49 51 53 54 53 51 49 47 45 43 42 41 41 40 41 41 41 42 42 43 43 45 45 46 47 48 49 50 51 51 52 52 53 53 54 54 55 56
38 40 41 43 44 46 48 50 51 52 52 51 51 48 47 48 49 50 49 48 45 44 43 41 39 39 38 38 38 38 38 39 39 40 41 41 42 42 42 42 43 44 44 45 46 47 48 48 49 50 50 50 50 50
44 46 47 49 51 52 54 54 52 50 49 49 47 47 47 47 47 45 44 42 42 40 39 38 38 37 37 37 37 37 37 36 36 36 36 37 38 38 39 40 41 42 42 43 43 44 44 44 45 45 45 45 44 44
51 52 53 54 55 54 51 51 50 47 46 46 45 44 44 44 42 40 40 39 38 38 37 37 36 36 35 35 34 34 33 33 34 35 35 36 37 37 37 38 38 38 38 39 39 40 40 40 41 41 41 41 40 39
54 53 52 50 49 49 47 46 44 44 42 41 41 41 40 38 39 38 37 36 36 35 34 34 34 34 33 33 33 33 33 33 34 34 34 34 34 34 34 34 34 35 36 37 38 38 38 39 38 38 37 36 36 36
Wind_Direction
278 280 279 278 277 275 271 265 258 251 246 241 236 233 230 227 226 224 224 226 226 223 223 219 216 216 215 217 215 216 221 220 219 214 218 222 224 227 230 234 233 233 236 237 234 231 226 227 235 241 244 248 255 262
285 285 287 284 281 275 265 258 251 244 238 232 228 224 221 219 218 217 216 214 213 214 212 210 210 211 211 214 215 217 218 217 215 214 212 217 221 223 225 228 229 230 230 230 229 229 225 230 234 242 247 249 254 259
292 294 290 287 280 271 260 249 241 232 224 217 213 211 209 208 207 207 207 207 206 203 205 204 204 206 210 212 214 217 214 217 218 213 214 215 217 219 220 223 224 226 225 225 226 227 226 230 237 244 247 248 250 256
298 293 291 293 278 257 241 232 224 213 205 201 201 200 198 198 197 198 199 200 201 198 203 202 202 207 209 211 212 212 209 211 208 214 214 213 214 216 218 218 219 221 226 224 225 226 226 228 230 241 244 247 251 256
296 298 313 302 278 228 203 202 195 190 189 187 186 186 188 189 191 192 194 194 195 195 197 200 204 203 205 205 209 210 209 212 212 210 212 215 214 215 215 216 215 220 221 223 224 227 228 230 233 241 246 249 251 255
307 330 341 15 48 125 160 161 165 171 176 180 181 182 181 181 182 185 190 192 191 191 192 195 200 201 203 204 207 206 208 208 204 204 206 206 210 213 213 209 209 215 221 224 223 227 229 232 238 239 243 248 250 253
8 64 69 74 90 109 130 136 143 148 151 159 168 171 173 174 174 174 176 178 181 186 190 192 197 199 198 200 203 207 206 207 208 208 202 205 207 208 205 206 212 214 218 222 223 225 227 229 233 237 241 248 252 255
93 98 102 107 114 118 122 121 122 128 133 143 151 155 158 160 164 169 173 177 181 185 187 190 193 195 196 201 206 208 207 206 204 202 203 208 208 206 204 208 215 219 221 222 225 226 229 232 235 240 244 248 252 257
98 102 104 102 109 117 120 123 127 130 134 137 143 148 154 159 162 165 168 171 177 181 185 189 192 193 197 204 207 210 210 201 201 205 205 205 206 208 206 212 216 220 222 223 223 225 229 233 237 239 241 245 250 256
107 110 109 110 111 114 118 123 125 127 129 134 139 143 150 155 159 164 169 175 178 182 190 194 192 195 199 200 204 211 210 202 206 207 203 208 212 209 209 214 218 222 224 223 224 227 229 233 235 237 242 246 251 256
120 114 115 116 114 115 117 122 127 131 133 135 138 142 149 153 158 163 168 173 177 183 186 189 195 199 201 201 203 209 206 200 203 206 206 211 210 209 210 213 217 222 224 223 225 228 231 236 239 243 247 251 253 257
122 123 123 122 122 122 124 125 124 124 127 130 132 134 137 140 147 153 161 173 183 185 184 191 196 199 198 199 201 206 203 199 200 207 208 212 209 209 211 215 220 224 225 225 228 230 234 239 243 246 250 253 256 258
112 115 118 120 122 123 123 123 124 124 124 124 126 125 123 129 143 152 156 167 183 187 183 194 197 198 196 201 200 206 207 200 204 207 209 210 209 210 213 217 221 225 227 228 230 233 238 241 244 247 251 254 257 259
112 113 113 118 120 120 121 120 118 118 117 117 123 130 139 143 147 152 157 165 172 184 179 183 189 194 197 196 202 206 208 207 206 209 210 211 211 213 217 221 225 228 229 231 234 237 240 243 246 249 252 256 259 261
109 111 110 114 119 122 123 123 125 125 130 124 122 125 133 134 139 146 149 154 159 166 181 187 180 188 191 193 203 205 202 207 210 211 212 214 215 219 223 226 229 232 236 239 240 242 244 247 249 251 254 257 259 261
101 102 106 108 109 113 113 119 124 125 125 127 121 123 123 126 130 137 134 135 142 153 163 179 185 182 190 198 202 207 206 210 216 216 217 218 222 224 227 230 232 236 239 242 244 246 247 249 251 253 255 258 260 262
95 94 94 97 98 102 110 115 120 125 121 120 119 119 118 119 120 123 122 126 129 135 152 167 177 185 197 204 209 215 214 217 218 221 222 224 227 228 230 233 236 239 241 243 246 249 251 253 254 256 258 260 262 264
92 93 94 93 93 102 113 122 135 131 127 123 115 111 106 105 110 120 127 131 133 136 144 162 175 191 205 217 219 220 220 222 225 228 229 231 233 233 235 236 239 242 244 247 249 253 255 257 259 260 261 264 266 268
100 99 97 91 86 96 99 108 105 104 103 105 111 113 109 112 116 116 117 121 130 144 155 174 187 198 206 218 225 228 228 229 229 232 235 238 240 242 243 245 246 247 249 252 254 256 258 260 262 264 265 267 270 272
89 89 89 86 83 84 81 89 93 91 90 84 76 83 87 94 100 112 126 137 144 155 168 185 198 209 218 226 231 234 236 236 238 239 240 242 244 247 248 250 252 254 256 258 259 261 262 264 266 268 270 272 274 275
88 92 95 88 81 78 80 79 83 87 91 85 80 80 83 85 80 79 96 152 178 204 213 219 223 228 233 235 239 241 242 243 243 243 244 245 247 249 252 254 255 257 259 260 262 264 266 268 271 273 275 276 276 276
117 108 102 101 105 105 88 85 81 77 75 74 70 57 38 27 20 350 327 298 284 284 281 276 280 269 262 265 261 262 263 262 260 258 257 256 256 257 259 260 261 262 264 266 269 271 272 273 275 277 278 278 278 279
146 147 150 152 155 151 128 61 43 30 355 323 300 303 300 296 297 294 293 290 288 284 277 273 272 271 270 270 270 269 269 269 267 265 263 261 260 261 262 264 266 268 271 272 274 276 277 277 277 278 279 279 279 279
154 154 162 174 180 199 241 279 305 307 307 303 300 297 292 289 288 287 284 284 284 283 282 279 276 274 272 270 269 268 267 266 265 264 264 265 267 271 274 275 274 274 273 272 273 273 273 274 275 275 276 278 280 281
195 195 202 244 276 283 286 286 285 284 283 283 284 285 285 285 282 281 281 282 281 280 278 278 276 276 275 274 272 270 269 273 278 280 277 275 273 271 270 269 270 271 273 273 274 276 277 279 279 280 281 282 283 285
229 239 248 260 275 283 286 287 286 286 286 287 290 292 293 295 295 295 293 292 292 289 285 282 279 277 276 276 281 283 284 283 281 278 277 276 276 276 276 277 277 276 276 277 277 279 280 281 282 283 284 284 285 286
251 259 268 277 282 286 288 288 289 291 294 296 297 299 300 300 300 298 297 294 291 287 284 282 282 285 287 288 287 285 283 282 281 280 279 280 280 280 280 281 282 282 283 283 283 284 284 285 286 287 288 288 289 290
259 265 270 275 278 281 284 287 289 293 295 298 300 302 303 303 301 297 293 289 287 285 287 290 291 290 290 289 288 286 284 284 283 282 282 282 281 281 281 281 281 281 281 282 283 284 285 286 287 288 289 290 290 290
268 272 276 278 280 282 285 288 292 298 301 303 304 304 303 301 297 293 290 289 290 292 293 292 293 293 293 292 289 288 288 287 286 286 286 285 285 285 285 285 285 285 285 286 286 287 287 287 287 287 288 288 289 289
269 272 276 280 282 284 288 292 296 299 303 304 304 303 300 298 296 294 294 295 296 296 295 297 297 296 295 294 293 292 292 292 291 290 289 289 289 288 288 288 288 288 288 288 289 289 289 290 290 291 291 292 292 293
274 277 280 283 286 290 292 294 299 302 303 302 300 298 297 295 295 296 297 298 297 297 299 299 298 297 296 295 295 295 294 294 293 292 291 291 291 291 291 291 291 291 291 291 291 291 291 292 292 292 293 293 294 295
277 280 284 287 289 291 296 299 300 299 298 297 297 296 294 294 297 299 298 298 299 300 299 299 298 298 298 298 297 296 296 296 296 296 296 295 295 294 294 294 294 294 294 295 295 295 296 297 297 298 299 299 299 299
281 284 286 289 292 294 295 295 296 296 295 295 294 294 297 300 300 297 299 300 299 298 298 298 298 299 299 299 299 300 300 300 300 300 299 298 298 298 298 299 299 299 300 301 302 302 302 301 301 301 301 303 304 305
Height
10053 10049 10044 10041 10037 10034 10032 10031 10030 10032 10035 10040 10044 10050 10058 10065 10072 10082 10092 10101 10115 10126 10134 10150 10161 10172 10186 10192 10207 10223 10220 10243 10264 10277 10298 10314 10325 10337 10355 10372 10387 10399 10414 10430 10439 10449 10466 10469 10468 10474 10476 10470 10483 10488
10039 10034 10030 10025 10021 10019 10018 10017 10019 10021 10024 10028 10034 10039 10046 10054 10063 10071 10082 10093 10102 10112 10129 10138 10151 10161 10172 10183 10190 10202 10231 10238 10253 10271 10285 10296 10310 10324 10344 10358 10374 10389 10403 10413 10423 10440 10450 10454 10458 10458 10458 10466 10471 10476
10027 10023 10018 10015 10012 10010 10009 10009 10011 10013 10017 10022 10027 10032 10038 10048 10056 10065 10074 10083 10093 10107 10116 10129 10140 10150 10160 10172 10190 10209 10227 10239 10250 10264 10271 10280 10292 10313 10328 10349 10362 10376 10384 10398 10412 10428 10438 10442 10444 10441 10444 10454 10456 10462
10020 10016 10012 10009 10006 10005 10004 10005 10006 10009 10013 10017 10022 10028 10035 10042 10050 10059 10071 10081 10090 10100 10109 10121 10134 10145 10161 10174 10192 10207 10215 10228 10242 10245 10256 10273 10296 10312 10325 10338 10346 10364 10375 10390 10404 10411 10421 10428 10434 10419 10427 10441 10447 10448
10015 10012 10008 10006 10004 10002 10001 10002 10004 10007 10011 10015 10020 10026 10032 10039 10047 10056 10065 10075 10084 10098 10110 10123 10134 10147 10159 10174 10186 10199 10210 10219 10231 10248 10266 10280 10295 10301 10312 10325 10345 10356 10369 10380 10392 10394 10403 10412 10418 10419 10422 10427 10429 10434
10013 10011 10008 10006 10004 10003 10003 10004 10006 10009 10013 10017 10022 10027 10035 10044 10054 10063 10072 10081 10092 10103 10115 10127 10135 10147 10161 10173 10182 10194 10204 10215 10227 10229 10246 10267 10280 10297 10314 10329 10338 10349 10357 10367 10376 10381 10394 10403 10403 10406 10411 10411 10415 10423
10014 10012 10011 10009 10009 10009 10009 10010 10012 10015 10018 10023 10028 10034 10041 10048 10057 10065 10075 10084 10093 10102 10114 10124 10135 10147 10158 10170 10179 10187 10199 10210 10220 10233 10249 10263 10275 10288 10307 10322 10327 10334 10344 10354 10364 10372 10382 10384 10391 10395 10397 10400 10406 10407
10016 10015 10014 10014 10014 10014 10015 10017 10020 10023 10026 10031 10037 10043 10049 10056 10064 10073 10081 10090 10099 10110 10120 10129 10140 10151 10160 10167 10174 10184 10194 10203 10219 10230 10244 10258 10266 10285 10299 10304 10311 10325 10340 10347 10357 10367 10369 10372 10378 10383 10387 10391 10392 10393
10020 10019 10019 10019 10020 10021 10023 10025 10027 10030 10034 10040 10046 10053 10060 10066 10073 10081 10088 10096 10104 10112 10120 10129 10138 10149 10159 10166 10174 10182 10188 10200 10208 10218 10233 10246 10257 10273 10291 10300 10308 10318 10327 10335 10343 10350 10357 10362 10367 10372 10372 10376 10378 10379
10026 10026 10025 10025 10027 10029 10030 10034 10037 10040 10044 10049 10055 10061 10067 10073 10079 10086 10094 10102 10110 10117 10123 10132 10142 10150 10157 10165 10171 10177 10186 10198 10207 10218 10231 10244 10254 10270 10285 10295 10304 10310 10318 10326 10333 10338 10343 10347 10352 10356 10356 10361 10363 10364
10031 10032 10033 10033 10035 10037 10041 10044 10047 10050 10053 10058 10062 10068 10074 10080 10087 10094 10100 10107 10113 10119 10126 10134 10140 10146 10154 10161 10169 10174 10184 10195 10211 10221 10231 10242 10255 10270 10282 10290 10295 10299 10307 10315 10320 10326 10330 10333 10338 10342 10345 10346 10348 10347
10039 10039 10039 10041 10043 10045 10048 10051 10055 10059 10062 10066 10071 10076 10082 10087 10093 10098 10103 10108 10113 10120 10127 10131 10137 10144 10153 10160 10168 10175 10183 10195 10206 10217 10228 10236 10255 10265 10273 10279 10286 10291 10297 10304 10309 10314 10318 10322 10325 10327 10328 10330 10330 10330
10048 10048 10049 10051 10052 10054 10057 10060 10063 10066 10070 10074 10078 10082 10087 10092 10096 10100 10104 10110 10114 10119 10127 10132 10138 10144 10151 10158 10165 10172 10181 10194 10203 10212 10224 10238 10250 10258 10265 10269 10274 10281 10288 10294 10298 10301 10303 10306 10309 10311 10311 10312 10313 10312
10055 10057 10059 10060 10061 10063 10066 10069 10073 10076 10080 10083 10086 10090 10093 10097 10100 10104 10109 10113 10118 10122 10129 10134 10140 10147 10153 10159 10166 10174 10185 10195 10203 10212 10224 10234 10241 10249 10257 10262 10267 10272 10277 10280 10283 10286 10288 10290 10292 10294 10294 10294 10293 10293
10063 10065 10066 10068 10069 10071 10074 10077 10080 10083 10085 10089 10092 10095 10098 10101 10105 10109 10113 10118 10122 10128 10131 10134 10141 10147 10155 10163 10170 10178 10187 10197 10204 10210 10220 10227 10236 10242 10247 10252 10256 10260 10264 10266 10268 10270 10272 10273 10274 10275 10275 10275 10274 10273
10073 10074 10075 10077 10079 10081 10084 10086 10088 10089 10092 10095 10098 10102 10104 10107 10109 10113 10118 10122 10127 10133 10138 10141 10146 10153 10158 10165 10173 10179 10186 10195 10201 10208 10213 10221 10226 10231 10235 10240 10244 10247 10250 10251 10253 10253 10254 10254 10255 10255 10255 10254 10253 10252
10083 10084 10085 10088 10090 10092 10093 10095 10098 10099 10101 10103 10105 10109 10111 10114 10117 10120 10123 10127 10131 10136 10142 10149 10153 10158 10164 10170 10176 10181 10188 10193 10197 10202 10207 10212 10217 10222 10226 10229 10231 10232 10233 10234 10235 10235 10235 10235 10236 10235 10235 10233 10231 10229
10094 10096 10099 10101 10102 10103 10105 10107 10108 10109 10111 10113 10114 10117 10120 10123 10126 10128 10131 10134 10138 10141 10146 10152 10158 10163 10167 10172 10177 10181 10186 10190 10193 10196 10199 10203 10207 10210 10213 10214 10216 10216 10216 10217 10217 10217 10216 10216 10215 10214 10213 10211 10209 10206
10108 10110 10111 10112 10113 10114 10116 10116 10117 10117 10120 10123 10126 10127 10129 10132 10134 10136 10138 10142 10145 10149 10154 10158 10161 10164 10167 10170 10173 10177 10180 10183 10186 10189 10191 10193 10195 10196 10197 10198 10199 10199 10199 10198 10197 10196 10195 10194 10192 10190 10188 10186 10184 10182
10117 10117 10119 10121 10123 10124 10126 10127 10127 10128 10130 10131 10133 10135 10138 10139 10142 10145 10147 10149 10151 10154 10156 10159 10162 10164 10167 10169 10171 10172 10174 10175 10177 10178 10179 10180 10180 10180 10179 10179 10179 10178 10177 10176 10175 10174 10173 10170 10169 10166 10163 10161 10159 10156
10125 10126 10128 10129 10132 10135 10135 10137 10137 10138 10140 10142 10143 10145 10147 10148 10149 10151 10153 10155 10157 10158 10160 10161 10162 10164 10164 10165 10165 10165 10165 10165 10164 10164 10164 10163 10162 10160 10159 10156 10155 10154 10153 10151 10149 10147 10145 10144 10142 10140 10137 10134 10130 10127
10132 10134 10135 10137 10139 10141 10142 10143 10144 10145 10147 10148 10150 10151 10153 10154 10156 10157 10158 10160 10160 10161 10162 10162 10162 10162 10162 10161 10160 10158 10157 10155 10154 10152 10150 10147 10145 10143 10141 10138 10135 10133 10131 10130 10129 10127 10124 10122 10120 10117 10113 10110 10105 10101
10135 10137 10139 10141 10143 10144 10145 10147 10148 10149 10150 10151 10152 10153 10155 10156 10157 10158 10159 10159 10159 10159 10159 10158 10157 10155 10153 10151 10149 10146 10143 10140 10136 10133 10129 10125 10122 10119 10117 10115 10114 10113 10112 10109 10107 10105 10101 10098 10094 10091 10086 10082 10077 10071
10137 10139 10141 10142 10144 10145 10147 10147 10148 10149 10150 10151 10152 10152 10152 10153 10153 10153 10152 10152 10151 10150 10148 10146 10143 10140 10136 10133 10129 10125 10121 10116 10112 10109 10106 10104 10102 10101 10100 10098 10095 10092 10088 10084 10080 10076 10073 10069 10065 10061 10056 10052 10047 10042
10138 10139 10141 10143 10144 10146 10147 10147 10148 10149 10149 10149 10149 10148 10148 10147 10146 10145 10144 10142 10139 10136 10133 10129 10124 10120 10115 10110 10104 10098 10093 10092 10091 10090 10087 10084 10081 10078 10074 10070 10067 10063 10060 10057 10054 10050 10047 10043 10039 10035 10029 10024 10021 10016
10137 10138 10140 10141 10142 10142 10143 10143 10142 10142 10141 10141 10140 10139 10137 10136 10134 10131 10129 10125 10121 10116 10111 10106 10100 10094 10089 10084 10081 10079 10076 10073 10069 10066 10062 10059 10056 10053 10051 10047 10043 10041 10038 10035 10031 10027 10023 10019 10016 10012 10007 10002 9998 9993
10131 10133 10134 10134 10135 10135 10135 10134 10133 10132 10131 10130 10129 10126 10124 10122 10119 10115 10111 10106 10100 10094 10088 10082 10076 10073 10069 10065 10062 10058 10054 10051 10047 10044 10041 10038 10035 10032 10029 10026 10023 10019 10015 10012 10009 10005 10001 9997 9993 9989 9985 9981 9977 9972
10125 10126 10126 10127 10126 10125 10124 10124 10123 10121 10120 10118 10115 10112 10109 10106 10102 10097 10091 10085 10078 10072 10067 10063 10059 10055 10051 10047 10044 10040 10036 10033 10030 10027 10024 10021 10018 10015 10012 10009 10005 10002 9998 9995 9991 9987 9983 9979 9974 9970 9966 9961 9956 9951
10117 10117 10117 10117 10116 10116 10114 10113 10111 10108 10105 10103 10100 10097 10094 10090 10084 10078 10072 10066 10061 10056 10051 10047 10042 10039 10035 10031 10028 10024 10021 10018 10015 10012 10008 10005 10003 9999 9995 9992 9989 9985 9981 9978 9974 9970 9966 9962 9957 9953 9949 9944 9939 9935
10109 10109 10108 10107 10106 10104 10102 10100 10097 10094 10092 10089 10086 10082 10078 10072 10066 10060 10055 10050 10045 10040 10036 10032 10028 10025 10021 10018 10015 10011 10008 10004 10001 9998 9994 9991 9987 9984 9981 9977 9974 9970 9967 9963 9959 9955 9950 9946 9941 9937 9932 9928 9923 9918
10098 10098 10096 10095 10093 10091 10089 10086 10084 10081 10078 10074 10071 10067 10062 10056 10050 10046 10040 10036 10031 10027 10024 10020 10016 10013 10010 10006 10003 9999 9996 9993 9989 9985 9982 9978 9975 9971 9968 9964 9961 9957 9953 9948 9944 9940 9936 9932 9927 9922 9918 9914 9909 9905
10087 10086 10085 10083 10081 10078 10076 10073 10070 10067 10064 10060 10056 10052 10047 10042 10037 10032 10028 10023 10020 10016 10013 10009 10006 10002 9999 9996 9992 9989 9985 9981 9978 9974 9971 9967 9964 9960 9956 9952 9948 9944 9940 9935 9931 9926 9922 9917 9912 9908 9904 9900 9896 9891
10075 10073 10072 10069 10067 10065 10063 10060 10057 10054 10050 10046 10042 10038 10034 10029 10024 10020 10017 10013 10010 10007 10003 10000 9996 9993 9989 9985 9982 9978 9974 9971 9967 9964 9960 9956 9952 9948 9944 9940 9936 9931 9927 9922 9917 9913 9909 9905 9900 9896 9892 9888 9883 9879